Home   Weather   36°09'N, 86°44'W   Past weeks
Flag for USA

Past Weather in 36°09'N, 86°44'W, USA — Yesterday and Last 2 Weeks

Now
73 °F

Scattered clouds.


Feels Like: 76 °F
Forecast: 74 / 41 °F
Wind: 3 mph from North

Location: Nashville International Airport

Current Time: Oct 14, 2019 at 4:01:07 pm

Latest Report: Oct 14, 2019 at 2:53 pm


Visibility: 10 mi

Pressure: 30.08 "Hg

Humidity: 29%

Dew Point: 39 °F

Location of 36°09'N, 86°44'WLocation

Past Weather in 36°09'N, 86°44'W — Graph

°F

36°09'N, 86°44'W Temperature Yesterday

Maximum temperature yesterday: 71 °F (at 3:53 pm)
Minimum temperature yesterday: 38 °F (at 6:53 am)
Average temperature yesterday: 54 °F

High & Low Weather Summary for the Past Weeks

 TemperatureHumidityPressure
High97 °F (Oct 2, 1:53 pm)93% (Oct 7, 4:00 am)30.23 "Hg (Oct 7, 4:00 am)
Low38 °F (Oct 13, 6:53 am)25% (Oct 13, 3:53 pm)29.93 "Hg (Oct 5, 4:53 pm)
Average70 °F64%30.08 "Hg
* Reported Sep 29 1:53 pm — Oct 14 1:53 pm, 36°09'N, 86°44'W. Weather by CustomWeather, © 2019

Note: Actual official high and low records may vary slightly from our data, if they occured in-between our weather recording intervals... More about our weather records

Advertising

36°09'N, 86°44'W Weather History for the Previous 24 Hours

Scroll right to see more
 ConditionsComfort  
Time TempWeatherWind HumidityBarometerVisibility
1:53 pm
Mon, Oct 14
74 °FScattered clouds.5 mph31%30.10 "Hg10 mi
12:53 pm70 °FScattered clouds.3 mph41%30.12 "Hg10 mi
11:53 am68 °FPassing clouds.3 mph40%30.15 "Hg10 mi
10:53 am66 °FPassing clouds.3 mph47%30.16 "Hg10 mi
9:53 am61 °FPassing clouds.3 mph58%30.17 "Hg10 mi
8:53 am54 °FSunny.No wind74%30.17 "Hg10 mi
7:53 am47 °FSunny.6 mph86%30.15 "Hg10 mi
6:53 am45 °FSunny.5 mph86%30.14 "Hg10 mi
5:53 am44 °FSunny.5 mph85%30.12 "Hg10 mi
4:53 am45 °FClear.5 mph86%30.10 "Hg10 mi
3:53 am46 °FClear.3 mph79%30.08 "Hg10 mi
2:53 am45 °FClear.5 mph82%30.07 "Hg10 mi
1:53 am47 °FClear.3 mph77%30.08 "Hg10 mi
12:53 am48 °FClear.No wind74%30.07 "Hg10 mi
11:53 pm
Sun, Oct 13
50 °FClear.3 mph68%30.06 "Hg10 mi
10:53 pm50 °FClear.3 mph71%30.06 "Hg10 mi
9:53 pm52 °FClear.5 mph66%30.06 "Hg10 mi
8:53 pm53 °FClear.5 mph64%30.04 "Hg10 mi
7:53 pm58 °FClear.5 mph47%30.03 "Hg10 mi
6:53 pm61 °FPassing clouds.5 mph39%30.01 "Hg10 mi
5:53 pm66 °FPassing clouds.7 mph29%30.01 "Hg10 mi
4:53 pm70 °FPassing clouds.6 mph29%30.00 "Hg10 mi
Weather by CustomWeather, © 2019

See weather overview